Location: Mascot Post Office (historical)
(40.2645°N, 99.5462°W)
Time: 17:25:26
(UTC+00:00)

USA 245 - Pass Details

Date: 14 July 2020
Orbit: 271 x 1010 km, 97.9° (Epoch: 01 August)

Event Time Altitude Azimuth Distance (km) Brightness Sun altitude
Exits shadow 03:35:05 23° 150° (SSE) 1,245 4.5 -14.1°
Maximum altitude 03:37:32 65° 73° (ENE) 694 3.6 -14.4°
Drops below altitude 10° 03:42:26 10° 353° (N) 2,269 7.3 -15.1°
Sets 03:45:02 0° 351° (N) 3,321 8.3 -15.4°
